Weather History for El Centro, CA

Change the Weather History Date:

Sunday, March 31, 2013

  Actual Average Record
Temperature  
Mean Temperature 75 °F -  
Max Temperature 87 °F 76 °F 100 °F (2011)
Min Temperature 66 °F 53 °F 42 °F (2009)
Cooling Degree Days 10    
Growing Degree Days 25 (Base 50)    
Moisture  
Dew Point 39 °F    
Average Humidity 28    
Maximum Humidity 39    
Minimum Humidity 19    
Precipitation  
Precipitation 0.00 in - - ()
Sea Level Pressure  
Sea Level Pressure 29.99 in    
Wind  
Wind Speed 20 mph (West)    
Max Wind Speed 30 mph    
Max Gust Speed 37 mph    
Visibility 10 miles    
Events      
Averages and records for this station are not official NWS values.
T = Trace of Precipitation, MM = Missing Value Source: NWS Daily Summary

Daily Weather History Graph

Daily Weather History Graph

Search for Another Location

Airport:

Trip Planner

Search our weather history database for the weather conditions in past years. The results will help you decide how hot, cold, wet, or windy it might be!

Date:

Astronomy

Mar. 31, 2013 Rise Set
Actual Time 6:31 AM PDT 7:02 PM PDT
Civil Twilight 6:06 AM PDT 7:27 PM PDT
Nautical Twilight 5:37 AM PDT 7:56 PM PDT
Astronomical Twilight 5:07 AM PDT 8:26 PM PDT
Moon No Moon Rise 9:37 AM PDT (3/31)
Length of Visible Light 13h 20m
Length of Day
12h 30m
Waning Gibbous, 76% of the Moon is Illuminated
Mar 31
Waning Gibbous
Apr 2
Last Quarter
Apr 10
New
Apr 18
First Quarter
Apr 25
Full

Hourly Weather History & Observations

Time (PDT) Temp. Dew Point Humidity Pressure Visibility Wind Dir Wind Speed Gust Speed Precip Events Conditions
12:56 AM 73.0 °F 42.1 °F 33% 29.99 in 10.0 mi WSW 18.4 mph - N/A   Clear
1:56 AM 73.0 °F 41.0 °F 31% 29.99 in 10.0 mi WSW 20.7 mph - N/A   Clear
2:56 AM 73.0 °F 32.0 °F 22% 29.98 in 10.0 mi WSW 19.6 mph 26.5 mph N/A   Clear
3:56 AM 71.1 °F 28.9 °F 21% 29.97 in 10.0 mi West 18.4 mph - N/A   Clear
4:56 AM 70.0 °F 34.0 °F 27% 29.98 in 10.0 mi WSW 13.8 mph - N/A   Clear
5:56 AM 68.0 °F 39.9 °F 36% 29.99 in 10.0 mi West 12.7 mph - N/A   Clear
6:56 AM 69.1 °F 43.0 °F 39% 30.00 in 10.0 mi West 13.8 mph - N/A   Clear
7:56 AM 72.0 °F 45.0 °F 38% 30.01 in 10.0 mi West 15.0 mph - N/A   Clear
8:56 AM 77.0 °F 43.0 °F 30% 30.02 in 10.0 mi West 19.6 mph - N/A   Clear
9:56 AM 79.0 °F 43.0 °F 28% 30.04 in 10.0 mi West 23.0 mph - N/A   Clear
10:56 AM 82.0 °F 42.1 °F 24% 30.04 in 10.0 mi WSW 18.4 mph 27.6 mph N/A   Clear
11:56 AM 84.0 °F 39.9 °F 21% 30.03 in 10.0 mi WSW 16.1 mph 24.2 mph N/A   Clear
12:56 PM 84.9 °F 42.1 °F 22% 30.01 in 10.0 mi WSW 25.3 mph 33.4 mph N/A   Clear
1:56 PM 84.9 °F 37.9 °F 19% 29.99 in 10.0 mi WSW 26.5 mph 31.1 mph N/A   Clear
2:56 PM 84.0 °F 37.9 °F 19% 29.98 in 10.0 mi WSW 26.5 mph 33.4 mph N/A   Clear
3:56 PM 82.9 °F 37.9 °F 20% 29.96 in 10.0 mi WSW 23.0 mph 32.2 mph N/A   Clear
4:56 PM 82.0 °F 36.0 °F 19% 29.95 in 10.0 mi West 25.3 mph - N/A   Clear
5:56 PM 79.0 °F 36.0 °F 21% 29.95 in 10.0 mi WSW 26.5 mph 33.4 mph N/A   Clear
6:56 PM 75.0 °F 36.0 °F 24% 29.94 in 10.0 mi WSW 29.9 mph 36.8 mph N/A   Clear
7:56 PM 72.0 °F 41.0 °F 33% 29.95 in 10.0 mi WSW 19.6 mph - N/A   Clear
8:56 PM 69.1 °F 39.9 °F 35% 29.97 in 10.0 mi WNW 17.3 mph - N/A   Clear
9:56 PM 68.0 °F 39.9 °F 36% 29.98 in 10.0 mi West 18.4 mph - N/A   Clear
10:56 PM 66.0 °F 39.9 °F 38% 29.99 in 10.0 mi West 21.9 mph 33.4 mph N/A   Clear
11:41 PM 66.2 °F 39.2 °F 37% 29.95 in 10.0 mi NW 20.7 mph - N/A   Clear
11:56 PM 66.0 °F 39.9 °F 38% 30.00 in 10.0 mi NW 23.0 mph - N/A   Clear